Back to catalog

SATGUS

AliveScienceSSO
NORAD 62713·PAYLOAD·🇺🇸 United States

Launched Jan 14, 2025 from Vandenberg Space Force Base

Loading…

Next Passes (next 24 hours)

TLE

FreshSource: Space-Track

Epoch: Sep 14, 2026, 05:12 UTC

1 62713U 25009DJ  26257.21706012  .00004739  00000-0  36395-3 0  9998
2 62713  97.6904 337.7669 0004923 144.5879 215.5674 15.02227788 90925

Track SATGUS in real time with AllMySat

Download on the App Store